Theta_e
348 351 351 353 352 352 353 351 353 353 357 356 352 355 353 352 353 354 351 346 346 344 342 343 341 339 343 345 346 346 346 345 345 344 344 341 336 337 338 338 340 341 342 340 341 341 341 341 341 341 343 344 343 343 343 345 345 344 344 345 344 343 341 342 342 343 344 344 345 343 343 343 344 344 341 338 339 342 344 344 344 344 344 343 343 344 343 343 342 341 342 343 342 342 342 342 342
350 351 350 352 351 353 353 351 356 358 357 352 351 356 351 350 354 354 354 348 347 344 342 342 339 340 344 344 343 345 346 345 342 342 342 338 337 338 338 339 340 341 341 341 341 342 341 342 342 342 343 343 343 343 344 344 345 345 344 345 344 342 341 342 342 343 344 344 344 344 344 343 343 344 343 340 340 343 344 344 344 344 344 343 345 345 343 342 341 341 343 344 343 343 342 341 342
349 350 350 351 351 352 353 352 357 357 353 351 351 357 353 353 357 353 351 346 345 343 342 341 340 344 344 346 345 346 348 346 343 339 339 338 338 339 339 340 340 340 340 341 342 341 342 342 343 343 342 341 341 342 342 342 344 344 344 344 344 343 342 342 343 344 344 345 344 344 344 343 343 344 343 341 340 342 344 344 344 344 343 344 345 344 342 341 340 341 343 343 343 343 342 341 341
348 350 350 351 352 352 357 359 362 357 352 352 349 356 358 357 358 351 346 344 344 343 342 342 344 346 346 350 348 347 348 346 342 336 338 337 336 338 339 339 339 339 339 341 342 341 341 342 343 343 342 341 340 341 339 339 341 341 342 343 344 344 344 343 344 345 345 345 344 344 344 343 343 343 343 342 340 341 343 344 345 344 344 344 343 343 341 340 340 342 343 343 342 342 342 342 342
349 351 351 351 353 354 357 361 364 359 351 355 351 353 358 355 356 352 346 345 344 344 343 344 348 347 346 348 346 347 347 345 341 336 336 336 337 338 339 339 339 338 339 340 340 340 341 341 341 340 339 339 340 339 338 339 338 338 339 341 343 343 345 344 344 345 345 345 344 345 344 342 342 343 343 342 339 339 342 344 345 345 345 344 343 342 341 340 341 342 342 342 343 343 343 342 342
351 351 352 351 353 353 357 357 359 358 352 358 356 352 353 348 350 348 345 345 345 345 344 346 348 346 346 346 345 346 346 344 340 336 336 336 337 338 339 339 338 338 338 338 339 337 337 339 339 339 338 338 339 340 340 340 340 339 338 340 341 343 344 344 344 343 344 344 344 344 343 342 343 343 343 343 340 339 341 342 345 344 344 344 343 342 341 341 341 342 342 342 342 343 343 342 342
351 351 352 353 354 353 361 359 356 360 355 357 357 353 350 345 345 345 346 346 345 345 345 346 345 347 349 347 346 346 347 344 339 337 336 336 337 338 339 339 338 338 337 338 337 334 335 339 342 342 342 342 340 340 341 341 342 342 341 341 341 343 343 342 344 344 343 343 343 343 341 341 342 342 343 343 339 337 340 342 344 343 343 343 343 343 342 342 340 341 341 341 342 343 343 341 342
352 351 351 355 359 357 361 360 357 361 357 355 356 353 349 345 343 346 348 345 346 346 345 346 343 350 351 346 348 347 346 342 337 338 336 336 337 338 338 339 339 338 338 336 334 333 337 342 344 344 344 344 341 340 340 340 342 342 343 343 343 344 343 343 344 343 344 343 344 343 341 341 342 342 343 341 337 337 341 343 344 343 344 343 343 343 341 341 340 340 340 341 341 342 341 339 338
351 352 352 355 361 361 360 360 358 359 361 359 357 353 349 347 344 346 349 345 345 345 344 345 343 350 350 346 349 348 345 341 339 339 337 337 338 338 339 339 338 337 336 334 332 334 339 343 342 343 344 344 342 341 340 340 341 342 343 343 344 344 343 344 344 343 344 344 343 343 342 342 342 342 342 339 337 339 342 343 344 343 344 344 343 342 341 340 339 338 339 340 340 341 339 337 335
350 352 353 356 361 359 356 358 358 359 362 360 356 354 350 347 344 344 347 347 345 346 346 345 344 348 349 348 349 347 345 342 340 340 339 338 338 338 338 338 338 334 331 330 333 337 341 342 340 342 342 342 342 342 342 342 341 343 343 341 343 343 343 344 344 343 343 343 343 343 342 342 343 343 340 338 339 341 343 344 344 344 345 345 344 342 340 339 337 336 337 338 339 339 337 336 335
351 351 352 358 359 357 354 357 358 358 361 358 354 352 350 346 344 344 346 347 347 347 347 345 347 347 348 349 349 348 345 342 341 341 339 339 338 338 338 338 336 331 328 330 336 339 341 342 342 341 342 342 342 342 343 342 342 343 342 340 342 342 343 343 343 344 343 342 342 343 342 342 343 343 339 339 341 342 343 344 344 345 345 345 343 341 339 336 335 335 336 337 338 337 336 336 336
355 353 354 359 357 357 357 358 357 359 361 360 357 351 349 345 345 348 347 348 347 347 346 345 348 347 349 349 349 349 345 343 342 340 340 339 338 338 338 335 331 328 328 332 337 340 341 343 343 342 342 342 343 343 343 343 342 342 341 341 340 341 343 343 343 344 344 343 343 342 342 343 343 342 340 339 342 343 343 344 344 345 345 344 342 339 336 334 334 334 333 334 336 336 337 338 339
354 353 357 358 354 357 357 358 358 361 362 358 357 350 347 345 346 348 346 348 347 348 348 345 345 346 350 350 349 349 346 344 341 340 340 339 339 338 335 330 327 327 330 334 336 339 342 343 343 342 342 343 343 343 343 343 343 342 342 342 341 341 342 343 343 344 345 343 343 343 342 342 342 342 340 340 342 343 344 344 344 344 343 343 339 334 332 332 332 331 330 332 335 336 338 341 342
352 350 357 358 355 358 356 356 358 360 359 357 355 348 346 346 346 346 346 350 347 348 348 345 344 346 350 350 350 349 346 345 342 341 340 340 341 338 331 325 326 329 332 336 338 340 342 343 343 343 343 343 343 343 343 343 343 343 342 343 342 341 342 344 343 343 345 343 343 344 342 341 341 341 340 340 342 342 343 342 341 341 342 341 334 328 328 328 328 327 329 331 336 339 342 343 343
352 349 357 361 359 359 356 357 359 359 359 359 355 346 347 348 346 346 347 350 348 347 347 345 344 346 350 349 350 349 347 345 342 342 342 342 342 338 332 328 329 332 337 339 339 342 343 343 344 344 344 344 343 343 343 343 344 343 342 343 343 342 342 344 342 341 343 343 344 344 342 342 342 342 341 341 341 341 342 341 340 338 338 335 328 325 325 325 326 328 331 336 340 342 344 344 343
352 349 358 363 360 358 357 359 359 360 360 358 352 346 348 348 346 348 346 349 349 347 347 346 345 344 347 347 348 348 348 345 344 345 345 345 342 340 335 331 332 336 340 341 341 343 343 344 344 344 344 344 344 343 343 343 344 343 343 343 342 343 343 341 341 342 343 342 343 343 342 343 342 341 340 340 341 341 341 339 336 332 330 328 324 324 325 326 329 332 337 341 343 344 344 344 344
351 352 360 362 359 360 359 360 357 359 363 357 348 347 350 350 347 348 348 348 348 348 347 346 345 344 345 346 347 348 348 347 347 347 346 345 345 344 340 337 338 340 342 342 342 343 343 343 343 342 343 343 343 343 343 343 343 344 344 342 342 344 343 340 341 343 343 343 343 343 343 343 343 341 340 341 341 340 337 333 329 326 326 325 325 325 327 331 334 338 341 343 343 344 344 344 344
350 355 359 358 360 363 360 358 356 357 362 355 348 348 350 351 349 348 348 348 347 347 347 346 346 346 345 345 348 348 348 348 347 346 346 345 345 345 343 342 342 343 343 343 343 343 342 342 341 341 341 340 341 342 342 342 343 344 344 342 343 344 343 342 343 344 342 343 344 343 343 342 342 340 339 341 340 336 333 330 327 327 327 326 326 328 332 336 339 341 343 343 344 344 344 344 344
352 355 357 359 362 360 355 354 354 355 357 352 351 350 349 349 348 348 350 348 347 347 347 346 347 348 347 347 348 349 349 349 347 345 345 344 344 344 342 342 342 342 343 342 342 341 341 340 340 340 339 339 339 341 341 342 343 344 343 342 343 343 343 341 342 344 342 342 343 343 343 342 341 340 340 340 337 336 334 332 330 330 328 327 329 333 335 338 341 342 342 343 343 343 344 344 344
353 353 357 363 358 355 352 352 354 352 353 353 352 351 348 349 348 348 349 347 347 348 347 347 348 349 349 349 349 349 349 349 347 345 345 344 344 343 342 342 341 342 342 341 340 340 340 340 339 339 339 340 340 341 342 343 344 344 342 342 343 343 343 342 342 344 343 341 343 342 342 342 341 340 340 339 336 336 335 333 332 330 329 331 335 337 339 340 341 342 343 343 343 344 344 344 344
353 353 358 358 351 354 355 351 352 350 350 353 352 350 349 348 349 349 347 349 349 347 347 346 348 349 349 349 349 349 349 348 347 346 345 344 344 343 343 343 342 342 341 339 339 339 339 339 340 340 341 341 342 343 343 343 343 343 342 341 343 343 343 343 343 344 343 343 343 341 342 342 340 340 340 338 335 334 334 333 331 331 332 336 339 341 342 343 343 343 344 344 343 342 342 343 343
354 353 351 351 349 354 356 352 353 351 352 353 350 351 351 349 349 348 346 350 350 346 346 345 344 346 348 349 349 349 349 348 348 346 346 346 345 344 344 344 343 342 340 339 339 340 340 340 341 342 342 343 344 344 344 343 343 343 342 342 342 343 343 343 343 343 343 343 342 342 342 341 339 340 340 336 334 333 333 331 332 334 336 339 341 342 343 344 344 345 344 343 343 341 340 341 341
354 355 350 351 352 353 356 354 353 353 353 353 350 350 350 349 351 349 347 347 346 346 346 345 343 345 346 348 349 349 348 348 346 346 346 346 345 345 345 344 342 341 340 339 340 340 339 341 342 342 342 343 344 344 343 344 343 342 343 342 342 343 343 343 343 343 343 342 342 342 341 340 339 340 338 337 335 333 332 331 335 340 341 342 342 343 344 344 344 344 344 343 342 341 340 340 341
351 356 355 354 352 352 355 355 354 353 352 351 350 350 349 351 354 350 349 348 344 346 347 345 346 347 347 348 348 348 348 347 346 346 345 344 345 346 345 343 341 341 341 340 340 339 339 342 342 340 342 343 343 343 343 343 343 343 343 342 342 343 342 342 343 342 342 342 341 341 340 339 340 340 338 337 335 332 331 332 337 342 343 344 343 344 343 343 343 343 343 342 342 341 341 341 341
348 353 356 354 352 352 353 353 353 352 350 351 350 350 350 350 352 350 351 349 344 346 347 347 348 348 348 347 348 348 347 347 346 346 345 344 345 346 345 342 342 342 340 339 339 338 339 342 341 341 341 342 342 343 343 342 341 342 342 342 342 342 342 341 342 341 341 341 340 339 339 340 340 339 337 336 335 333 333 336 341 343 343 343 343 343 343 343 343 343 342 342 342 342 342 341 342
349 352 355 353 353 352 352 351 349 350 350 351 351 351 350 349 350 350 350 349 346 346 347 347 348 348 348 347 347 347 346 347 346 345 345 345 346 345 344 343 342 341 339 339 338 337 338 340 341 341 342 342 342 342 342 341 340 341 341 341 341 341 341 340 340 340 340 339 339 339 340 340 339 338 337 337 336 335 336 340 344 344 344 343 343 343 343 343 343 342 342 342 342 342 342 342 341
351 352 353 352 353 352 352 349 347 350 350 350 352 353 350 346 352 355 350 346 346 347 346 347 348 348 347 347 347 346 346 346 345 344 344 345 345 345 345 343 341 340 339 338 337 338 338 339 339 341 343 342 341 341 341 340 340 340 340 340 340 340 339 339 340 339 339 339 339 340 340 339 337 337 337 336 337 337 340 343 344 344 344 343 343 343 343 343 343 342 342 342 342 342 341 341 340
353 352 353 351 350 351 350 350 349 350 349 349 350 352 349 348 355 355 347 345 347 346 346 347 348 348 348 347 347 346 345 345 345 344 344 344 344 344 345 344 341 340 339 338 337 339 338 338 339 340 342 342 341 340 340 340 340 340 339 339 339 339 339 339 339 339 339 340 340 339 338 337 336 337 336 337 338 340 341 342 343 343 343 344 343 343 343 343 343 342 343 342 342 341 341 341 341
353 354 356 353 351 351 349 349 349 349 349 348 349 352 353 352 354 350 345 346 347 346 346 346 347 347 347 347 346 346 345 345 344 343 343 344 343 343 345 345 341 339 339 338 338 340 340 337 337 339 340 341 341 341 340 340 339 339 338 338 338 338 338 338 338 339 339 339 338 337 337 336 337 336 336 336 338 340 341 341 341 341 342 344 344 343 343 342 343 343 342 342 341 341 342 342 342
355 355 355 355 354 353 350 348 348 350 349 347 350 354 354 355 351 346 346 346 346 346 345 345 346 347 346 347 345 345 346 345 344 344 343 343 344 343 345 345 342 339 339 339 340 341 340 337 337 338 339 340 341 341 340 339 339 338 337 337 338 337 337 338 337 338 338 337 337 336 336 336 336 336 336 337 339 340 341 342 342 343 343 343 344 343 342 342 342 342 342 341 341 342 343 343 342
357 353 354 356 356 354 350 348 349 351 349 347 352 356 355 354 349 346 347 346 346 346 345 344 345 345 346 346 345 345 345 344 343 343 344 344 344 343 345 346 342 340 339 339 341 342 341 338 337 338 338 339 340 340 339 338 337 336 336 337 337 337 337 337 337 337 337 337 336 336 335 336 335 336 337 338 340 341 342 343 343 344 344 344 344 343 342 341 341 341 341 341 341 342 344 344 342
355 351 353 354 353 353 351 349 350 351 349 347 353 356 355 354 348 347 347 346 346 346 345 345 344 344 345 345 345 345 345 344 344 344 344 344 345 344 344 345 343 340 340 341 342 342 342 339 337 338 338 339 339 338 338 336 335 335 335 336 336 336 336 336 336 336 336 336 336 336 336 336 336 336 338 339 340 341 342 343 344 344 344 344 344 343 342 341 340 341 340 341 342 343 344 344 342
354 352 354 353 351 353 353 351 350 350 350 348 352 354 355 355 349 346 347 346 346 346 345 345 344 343 343 345 345 344 344 344 344 344 344 344 344 344 344 345 344 342 341 342 342 342 342 339 337 338 338 339 338 337 335 335 335 335 335 336 336 336 336 335 336 335 336 336 336 336 338 339 339 340 340 340 341 342 344 345 345 343 343 344 344 344 343 342 340 340 340 341 342 343 344 343 342
354 355 357 353 351 351 351 353 350 349 351 350 351 353 355 354 348 347 347 346 345 345 345 345 345 344 343 344 343 343 344 343 344 344 344 344 344 344 344 345 345 343 342 342 342 342 342 340 338 337 339 340 338 336 336 336 337 336 337 337 338 337 337 336 335 335 336 337 338 339 341 342 342 343 343 342 343 343 344 344 343 342 343 344 345 344 344 343 341 340 340 341 342 344 344 343 342
354 354 357 355 353 352 352 355 352 349 352 352 352 353 353 352 349 349 348 346 346 345 345 345 344 344 344 344 343 343 343 343 344 344 344 344 344 344 344 345 346 344 343 343 342 341 341 341 339 338 338 339 339 338 337 338 339 338 338 338 339 339 337 337 336 336 337 338 341 342 343 343 343 344 344 345 345 344 343 342 342 342 343 344 344 344 344 344 342 340 340 341 343 345 344 343 342
357 353 355 358 356 353 353 355 351 349 352 352 351 354 354 352 351 350 347 346 347 345 344 345 344 344 344 344 344 343 343 344 343 344 345 344 344 345 344 345 345 344 344 343 342 342 341 341 340 339 338 338 339 339 339 340 341 340 339 339 339 339 338 337 337 337 339 341 343 344 344 344 344 345 345 346 345 343 342 341 341 342 344 346 346 344 344 344 343 340 341 342 343 344 344 343 342
354 355 354 357 355 352 356 356 349 348 353 350 348 352 352 352 352 349 345 346 348 346 344 344 344 345 343 344 343 344 344 344 343 344 344 344 344 344 345 346 346 345 344 343 343 342 341 341 340 340 338 338 338 338 339 339 340 341 340 340 339 339 339 339 339 340 341 342 343 344 345 344 344 345 347 347 346 344 342 342 342 343 345 346 346 345 344 345 344 342 342 342 343 344 343 343 341
344 357 355 355 354 353 355 355 349 349 354 351 348 351 352 352 352 349 346 348 349 347 345 343 343 344 344 343 343 343 344 344 344 343 343 344 344 344 346 346 345 345 343 343 343 342 341 340 340 340 339 338 338 338 338 338 339 340 341 341 340 340 340 341 341 341 341 342 343 344 344 344 344 345 346 347 345 344 343 343 343 344 345 345 344 345 344 344 344 344 343 343 343 343 343 343 341
338 357 356 353 354 353 353 353 349 349 355 356 352 352 352 352 350 348 347 349 350 347 346 344 343 343 343 343 343 343 343 343 343 343 343 344 343 344 347 347 346 346 344 343 343 342 341 340 339 340 339 339 338 339 339 339 340 340 340 341 340 340 340 341 341 341 341 341 342 343 343 343 343 345 346 346 345 344 344 344 344 345 346 346 345 345 344 343 343 343 343 344 344 343 343 342 342
334 356 355 354 354 352 354 353 347 348 352 354 353 353 354 352 347 347 347 348 349 349 348 345 343 342 343 343 343 343 342 342 342 342 343 344 343 345 347 347 346 347 346 344 343 343 341 340 339 340 339 339 339 340 341 341 340 340 340 339 339 338 339 340 340 341 341 341 342 342 342 342 343 344 345 346 346 346 344 343 343 343 345 346 344 343 345 343 343 344 344 344 344 344 344 343 343
331 350 353 356 357 353 357 354 346 348 350 350 352 352 353 352 349 348 348 346 348 350 350 348 345 343 342 342 342 343 342 342 343 342 343 343 344 344 346 347 346 347 347 344 343 343 341 340 340 340 339 339 340 342 342 341 340 339 340 339 339 338 338 339 339 340 340 340 340 340 340 341 343 344 345 345 346 346 345 343 342 342 343 344 342 342 345 344 344 345 344 344 345 345 345 344 344
325 339 346 351 357 356 357 354 348 349 351 350 351 350 351 353 351 351 351 348 348 349 349 350 348 344 341 340 341 341 341 342 342 343 343 343 343 343 346 347 346 347 347 345 344 342 341 341 340 341 340 340 341 342 342 342 339 338 340 340 339 339 339 339 338 338 337 337 337 338 339 341 343 343 343 344 345 345 344 342 343 342 342 342 341 343 346 346 345 344 344 344 345 346 345 346 345
320 329 340 347 354 356 355 354 351 350 351 350 349 349 349 352 353 352 352 351 350 350 350 350 349 348 343 340 340 340 340 340 341 341 342 342 342 343 345 347 347 346 346 346 345 343 342 342 342 341 342 342 341 341 343 343 339 337 340 341 341 340 339 339 339 339 338 337 337 337 339 339 341 341 342 343 344 344 343 342 343 343 342 341 341 345 347 346 345 345 344 345 346 346 346 346 346
319 328 343 350 354 355 353 352 352 350 350 350 349 349 348 350 353 351 351 353 352 351 351 350 350 349 345 341 340 340 340 339 340 340 341 341 341 342 344 345 346 345 346 347 346 345 343 343 342 342 342 343 343 342 344 343 339 338 341 343 343 343 342 341 341 341 342 341 338 338 339 339 339 340 340 342 343 344 343 342 342 343 341 341 342 346 348 346 345 345 345 345 346 347 347 346 346
326 338 348 350 351 353 350 349 351 350 348 349 351 350 348 350 353 352 351 352 353 352 351 350 350 350 348 344 340 340 340 339 339 340 341 341 341 342 342 343 344 345 346 346 346 345 345 344 344 343 343 344 344 344 345 343 339 340 343 344 344 344 344 344 343 343 344 344 341 339 340 339 339 340 340 341 342 343 343 342 342 343 342 341 343 347 348 347 346 345 345 345 345 346 347 346 346
335 343 345 343 343 344 342 344 350 351 349 349 350 349 347 349 352 352 352 353 352 352 350 349 349 350 349 346 343 340 339 339 339 340 340 340 341 341 341 343 344 345 345 346 346 346 346 345 344 343 343 343 344 343 344 343 341 341 343 345 345 345 346 346 345 345 345 344 342 340 340 340 340 339 340 340 341 342 343 343 342 342 343 342 344 347 348 348 347 346 344 344 344 345 346 347 347
340 343 342 339 340 339 342 346 347 348 349 348 348 349 347 348 351 351 351 352 350 350 350 348 348 349 349 347 345 342 339 339 338 339 340 339 340 341 341 343 344 345 346 346 347 346 346 345 344 343 343 343 344 344 343 343 343 343 344 345 345 345 346 346 346 346 346 344 341 340 341 341 340 340 340 340 341 342 343 343 342 342 343 343 344 346 348 348 348 347 343 342 343 343 345 346 347
344 346 344 342 344 343 345 348 346 345 347 347 347 349 347 347 351 351 350 349 348 348 349 348 348 348 349 348 347 345 341 340 339 340 341 341 342 343 343 344 345 345 346 346 347 346 346 346 344 343 344 343 342 343 344 343 344 345 345 346 346 346 346 347 347 347 347 346 342 340 340 340 340 340 340 340 341 342 342 342 342 342 342 343 343 345 349 349 349 347 342 341 342 342 344 346 347
347 347 346 346 347 347 346 345 346 345 344 345 348 349 349 346 347 348 349 347 348 348 348 347 347 348 349 348 347 346 343 340 340 340 341 342 342 343 344 344 345 346 345 346 347 347 346 346 344 344 345 345 342 342 343 343 344 345 346 346 346 347 347 348 348 348 347 347 345 341 339 340 341 340 339 340 341 342 342 341 341 341 341 342 343 345 347 348 349 347 342 341 342 342 343 345 346
347 344 343 347 349 348 347 344 344 344 342 343 348 349 348 346 346 348 348 345 345 347 347 347 346 347 349 348 347 347 346 342 341 340 340 341 342 342 342 343 345 345 345 346 346 346 346 346 345 344 345 346 344 342 340 342 343 344 345 346 347 347 348 348 348 348 347 347 347 343 339 339 341 340 339 340 341 341 341 341 341 341 341 341 343 345 345 345 347 347 344 342 343 343 342 343 344
343 342 340 342 347 348 347 345 343 344 345 346 346 348 350 349 350 352 347 342 342 345 347 347 347 347 348 349 348 347 347 345 342 341 341 341 341 341 342 342 344 344 344 345 345 345 346 346 346 345 344 346 346 343 340 339 342 343 345 346 346 347 347 347 348 348 347 347 348 346 342 342 342 341 340 340 341 341 341 342 341 341 341 340 342 342 343 343 345 347 346 345 345 344 343 342 343
338 334 336 337 344 349 345 341 342 344 347 349 346 348 354 352 350 351 349 347 345 344 347 348 346 347 347 348 349 347 348 347 343 341 341 341 341 341 342 342 342 343 344 344 345 344 345 346 346 345 343 344 345 344 340 338 339 341 342 344 345 346 347 347 347 348 348 348 348 348 346 345 345 344 342 341 342 342 342 342 342 341 341 341 340 340 341 342 344 346 346 346 347 346 344 344 343
339 333 339 339 336 341 339 331 335 341 343 345 346 348 353 349 346 353 358 357 351 346 347 348 347 347 347 347 349 347 347 348 346 343 341 341 341 341 342 342 342 343 343 344 344 343 343 344 346 346 345 342 344 343 340 338 338 339 340 343 345 346 346 347 347 348 348 348 348 349 348 347 347 347 346 345 344 344 343 342 341 342 341 341 341 340 341 343 344 345 345 345 347 347 347 346 345
332 330 339 341 331 332 336 330 330 336 338 342 346 349 350 346 344 352 359 359 353 349 348 348 347 347 346 346 347 348 347 347 348 346 343 341 341 341 342 343 342 342 343 343 342 342 342 343 345 346 345 341 341 341 339 337 338 338 340 344 345 345 345 346 347 347 348 348 349 348 348 347 348 348 348 348 347 345 344 342 341 341 341 340 341 341 341 343 344 344 344 344 345 346 347 347 346
323 324 333 339 334 329 329 331 331 330 333 341 347 347 346 344 345 350 354 354 352 351 350 349 347 347 346 345 345 346 347 347 348 348 345 343 342 342 342 343 343 343 343 343 342 342 342 343 344 345 345 342 339 338 338 337 337 337 340 344 345 345 345 345 345 346 347 348 348 348 347 348 348 348 348 348 348 346 345 345 343 342 341 341 341 341 341 341 342 343 342 342 343 343 344 345 344
325 330 334 337 339 332 323 328 332 328 331 340 343 344 345 345 347 352 352 350 350 351 351 350 348 347 346 345 344 345 346 347 348 348 347 345 343 342 341 342 342 343 343 342 342 342 342 343 343 345 346 345 342 340 338 338 338 338 341 343 343 344 344 345 344 344 345 346 346 347 347 348 349 348 348 348 347 345 345 346 346 345 344 344 343 343 342 342 341 341 342 342 342 342 341 342 342
329 336 339 337 340 334 322 323 328 329 334 339 339 340 343 343 345 350 352 351 348 350 352 350 347 346 347 346 346 346 346 347 347 347 347 347 344 342 342 343 343 343 343 344 343 343 343 343 344 345 347 346 344 341 339 339 339 339 341 342 342 342 343 344 344 343 344 345 346 346 346 347 348 348 348 346 346 345 344 345 346 347 347 348 348 346 346 345 342 341 341 342 342 342 341 340 341
329 336 339 337 335 327 322 324 328 330 333 338 340 338 340 344 344 345 349 350 348 348 350 349 347 346 347 347 347 347 346 347 347 347 347 347 346 344 343 343 343 344 345 344 344 343 343 343 343 345 347 346 344 342 341 341 340 340 341 341 341 341 342 343 343 343 343 345 346 346 347 347 347 347 347 345 345 344 344 344 345 347 348 349 349 349 349 347 346 344 342 342 342 342 341 341 340
Wind_Speed
6 5 3 2 3 4 4 3 0 1 3 2 2 1 1 1 2 3 4 6 4 8 9 10 23 19 5 3 4 5 6 7 5 3 4 11 23 25 21 21 19 18 18 18 18 16 15 14 13 12 11 10 9 9 9 9 9 9 9 10 10 9 10 12 11 12 12 12 12 11 11 11 11 13 16 16 16 15 14 14 15 15 15 15 14 14 14 14 14 13 13 13 13 13 13 12 11
5 3 2 2 4 4 3 2 1 2 3 3 2 0 1 2 3 5 7 7 5 11 13 16 23 10 1 6 8 7 7 3 3 8 14 23 27 23 21 21 19 19 19 19 19 17 16 14 14 13 11 11 10 10 9 9 9 8 9 9 10 10 11 11 11 12 11 12 11 11 11 11 11 12 14 15 15 14 13 14 14 15 14 14 14 14 14 14 14 12 12 12 13 13 13 13 13
3 2 2 3 4 2 2 2 1 2 4 3 1 2 1 1 3 6 8 6 10 17 17 19 16 5 4 7 5 3 2 2 9 18 23 28 26 24 22 20 20 20 20 20 18 17 16 15 14 12 11 11 10 9 9 9 9 9 8 8 9 10 11 11 11 11 11 11 11 11 11 11 11 12 13 14 14 13 13 13 14 14 13 13 13 13 13 12 12 11 11 12 12 13 13 13 13
3 3 3 4 3 1 1 2 1 3 3 2 1 2 2 2 3 2 3 6 17 22 20 18 8 2 4 4 3 3 3 4 15 24 26 27 24 24 22 21 20 19 19 18 17 17 15 14 13 12 11 9 8 8 8 8 7 8 9 8 9 9 10 10 11 11 10 10 11 11 11 10 10 11 12 13 13 12 12 12 13 13 12 13 13 13 13 12 11 11 12 12 12 12 12 12 12
3 4 4 4 2 1 1 2 1 3 3 3 2 3 3 2 4 5 5 10 18 20 20 17 5 3 4 4 3 1 3 7 18 24 27 27 23 23 22 21 19 18 17 15 16 15 15 14 12 11 10 8 7 6 6 6 6 7 9 8 8 8 9 10 10 10 10 10 10 11 11 11 10 10 11 12 11 12 12 12 13 12 12 12 13 13 13 11 11 11 11 11 11 11 11 11 11
3 4 5 3 1 1 1 2 2 3 0 3 2 3 1 3 6 10 11 13 14 15 17 13 7 7 6 6 6 5 4 8 19 24 27 27 23 23 21 20 18 17 17 15 14 13 14 13 11 10 9 8 7 7 6 6 6 6 8 8 8 8 9 9 9 9 9 10 10 10 10 11 10 10 10 11 11 11 11 11 12 12 12 12 12 12 12 11 10 10 10 10 10 10 11 11 10
2 4 3 2 1 1 1 3 3 2 1 1 2 1 3 4 10 15 12 11 9 10 11 10 12 11 5 3 7 7 3 7 20 24 26 26 24 22 20 19 17 17 16 15 14 12 12 11 10 9 9 9 7 7 7 7 7 7 7 7 9 9 8 9 9 9 9 9 10 10 10 11 10 9 10 10 10 11 12 11 11 12 12 11 12 12 11 11 10 10 9 9 9 10 11 10 10
2 4 1 1 1 1 2 3 2 1 1 1 1 1 4 5 9 11 8 7 6 7 8 11 12 7 2 2 5 4 4 11 20 23 25 25 23 21 19 18 17 16 15 15 13 12 11 10 10 9 9 8 7 7 7 8 8 8 7 7 8 8 8 9 9 9 9 9 10 10 10 11 11 10 9 9 11 13 12 10 11 12 12 11 11 11 10 10 9 9 8 8 8 9 10 10 10
3 4 1 1 1 2 2 3 2 1 1 1 1 1 2 5 6 7 6 6 6 9 10 10 6 4 5 7 7 5 7 13 19 22 23 23 21 19 18 17 16 16 15 14 13 12 11 9 10 10 9 7 7 7 7 8 8 8 8 8 7 8 9 9 9 9 9 10 10 10 10 10 11 10 10 11 13 14 12 10 11 12 11 11 10 10 10 9 9 8 8 7 8 9 10 11 10
4 3 1 1 2 3 3 2 1 0 1 0 2 3 2 5 5 6 7 6 8 10 8 7 6 9 10 8 7 5 8 14 20 22 21 21 19 18 17 16 14 14 14 14 12 11 10 8 8 9 8 7 7 7 7 8 8 7 7 7 7 8 9 9 9 10 10 10 11 11 11 11 11 11 11 13 14 14 11 10 11 11 11 10 10 10 9 9 9 8 7 7 7 8 10 11 10
3 2 2 2 2 3 3 2 1 1 2 1 3 5 2 7 7 6 7 8 9 9 8 7 9 15 11 6 6 6 10 16 20 21 21 20 18 17 16 15 13 12 13 12 11 10 10 9 8 7 7 7 7 7 7 7 6 6 7 8 8 9 9 9 10 11 11 11 11 11 12 12 12 12 12 14 14 12 11 10 11 10 10 9 9 9 9 9 8 8 7 7 8 9 11 11 10
3 2 2 3 2 1 2 2 2 0 2 2 3 6 3 11 9 7 8 9 9 10 8 7 12 16 8 4 6 8 14 17 18 21 20 19 17 16 15 15 14 12 12 11 11 11 10 10 9 8 8 8 8 8 8 7 7 7 9 10 10 10 10 10 10 11 11 12 12 11 12 12 12 12 13 14 13 12 10 10 10 10 9 9 9 9 9 8 8 7 6 6 8 9 10 11 10
2 1 2 2 1 1 3 2 0 1 2 2 2 3 7 12 8 9 9 9 10 9 4 8 18 15 6 5 10 12 16 18 18 20 19 18 17 16 15 14 14 13 12 11 11 11 11 10 9 9 8 8 8 8 8 7 8 9 10 10 11 11 11 11 10 11 10 12 12 11 12 12 12 13 13 14 12 11 10 9 9 9 8 8 9 9 9 8 8 7 6 7 9 10 11 11 11
3 2 2 2 1 1 3 1 1 2 1 1 0 3 9 8 7 11 12 10 6 5 5 13 19 12 9 9 11 15 17 18 19 19 18 17 16 15 14 14 14 13 12 12 11 11 10 9 9 8 7 7 8 7 7 8 8 9 9 9 11 12 12 11 10 10 10 11 12 12 12 12 13 13 13 13 12 11 9 8 8 8 8 8 8 9 8 8 8 7 8 9 10 11 11 11 12
3 3 2 2 2 2 2 1 0 2 1 1 2 6 10 8 9 12 13 8 2 7 11 17 15 6 9 9 11 20 19 19 19 17 16 15 15 14 13 13 13 13 12 11 11 10 8 7 8 7 7 7 7 8 8 8 8 9 9 9 10 11 11 10 10 10 10 11 12 12 11 12 13 13 12 12 11 10 9 8 7 7 8 8 9 9 9 10 10 10 10 11 11 11 11 11 11
2 2 3 2 1 1 2 2 1 2 1 1 5 11 10 8 11 10 8 7 10 14 10 13 8 2 10 12 15 24 21 20 19 16 16 15 15 13 12 12 12 12 11 10 9 8 7 6 6 6 7 7 7 7 7 8 8 9 9 10 10 10 10 10 11 11 11 12 12 12 12 13 13 13 13 12 12 10 8 7 8 9 10 10 11 11 12 12 12 12 12 12 12 11 10 10 10
2 1 3 2 1 2 3 4 3 3 1 1 8 11 7 6 9 8 7 11 17 13 6 9 3 1 13 14 19 26 21 21 18 17 16 14 14 12 11 11 11 11 9 8 7 6 6 6 6 6 6 6 6 5 5 7 8 9 9 10 11 10 10 11 12 13 13 13 13 13 13 14 14 14 14 13 12 10 9 9 11 12 13 13 13 14 14 14 14 14 14 13 12 11 9 9 8
1 1 2 1 2 3 3 4 3 3 2 4 8 9 9 8 8 11 11 12 15 10 8 9 4 6 15 16 24 25 21 20 17 17 15 14 13 11 11 10 10 9 8 8 7 7 6 7 8 7 7 7 6 5 5 7 7 8 9 10 12 12 11 12 12 14 16 14 14 14 14 15 15 15 14 13 12 11 11 13 15 15 15 15 15 16 15 15 15 14 14 12 10 9 8 7 7
2 2 2 1 3 2 2 5 6 4 4 7 8 7 10 11 12 14 9 8 12 10 10 12 13 15 17 21 26 23 22 20 17 17 14 13 12 11 11 10 10 9 9 10 9 8 8 8 8 7 7 7 7 6 7 7 6 7 8 9 11 12 12 12 12 13 16 15 14 14 15 16 16 16 14 13 13 12 13 14 16 16 16 16 16 16 15 15 14 13 12 10 8 7 6 6 6
3 1 1 3 3 2 2 6 11 9 10 10 7 6 8 11 14 13 9 9 9 8 11 13 17 21 22 25 25 23 22 19 17 16 13 12 10 10 10 10 11 10 10 10 9 9 9 9 8 7 7 7 7 7 7 7 6 7 7 8 10 12 12 13 13 13 15 15 15 15 16 16 16 16 15 14 14 14 15 16 16 17 17 17 17 16 15 14 13 11 10 8 7 5 4 4 4
3 3 2 2 2 0 2 6 11 11 15 13 8 7 7 10 12 13 16 10 3 9 17 16 19 25 27 26 25 24 22 20 18 16 14 12 10 10 10 10 10 10 10 10 10 10 10 9 8 8 8 8 8 8 8 7 7 8 8 9 11 12 13 14 14 14 15 16 15 16 16 16 16 16 15 14 15 16 17 17 17 18 17 17 17 15 14 13 11 9 8 7 5 4 4 3 3
2 3 4 1 1 1 2 4 9 12 16 14 10 7 7 9 7 13 18 8 4 14 20 18 21 27 29 28 26 25 22 21 19 16 15 13 11 10 10 9 10 11 10 10 10 10 10 10 9 9 9 9 9 8 9 8 8 9 9 10 11 13 14 14 14 15 16 17 17 16 17 17 16 16 15 15 15 17 18 18 19 18 17 16 15 14 12 10 9 7 7 6 5 4 4 4 5
2 3 2 4 1 1 2 4 9 11 12 8 8 9 9 9 5 9 13 4 5 16 19 17 22 27 29 29 27 25 23 21 18 16 13 12 11 10 9 9 10 11 10 10 10 10 11 10 9 8 9 11 10 9 10 10 10 10 11 10 11 13 14 14 15 16 17 17 17 17 17 17 16 15 16 16 16 17 18 19 19 17 15 14 13 12 10 8 7 6 6 6 5 5 5 6 7
6 2 1 6 6 3 3 5 8 9 9 3 5 10 8 7 4 7 9 3 6 15 19 19 24 27 27 27 26 25 23 20 17 14 11 10 9 8 8 8 10 9 9 10 10 10 10 9 9 9 10 11 11 11 11 12 13 13 12 12 13 14 15 15 15 16 17 17 17 16 16 16 15 15 16 16 17 18 19 19 17 15 13 13 12 11 8 7 6 5 5 5 5 5 5 6 6
7 1 3 6 8 7 6 8 8 10 13 9 8 9 6 6 4 4 6 5 10 17 20 22 26 28 26 26 26 24 23 20 17 15 12 10 9 8 8 8 9 9 10 11 10 9 9 9 10 10 11 12 13 13 13 13 13 14 14 14 15 15 15 16 16 17 17 17 16 16 16 15 15 15 16 16 17 18 18 17 15 13 13 12 11 9 8 6 5 5 5 4 4 4 5 5 5
7 3 6 6 7 7 5 8 7 8 14 12 8 6 5 6 4 3 5 5 14 21 22 25 28 28 27 26 25 24 22 20 17 15 14 12 10 9 9 9 10 10 10 10 10 10 9 10 11 11 12 13 13 13 13 13 14 14 15 15 15 15 16 16 16 17 16 16 16 16 16 15 15 16 16 16 16 17 16 15 14 13 12 11 10 9 7 6 5 5 4 4 3 3 4 5 4
8 11 11 9 9 8 4 6 6 7 12 11 8 5 5 6 5 3 4 8 20 24 24 27 28 28 28 26 25 23 21 19 17 15 15 14 12 10 10 10 10 11 11 11 11 10 10 11 11 12 12 12 13 13 13 14 14 15 15 15 15 15 16 15 16 17 17 17 16 16 16 16 16 16 16 15 16 16 15 14 13 12 10 10 9 8 6 5 5 5 4 3 2 3 4 5 4
15 15 11 8 9 10 6 5 6 3 5 8 9 7 4 4 4 1 2 13 25 26 26 28 29 29 27 26 24 23 21 19 18 17 15 14 11 10 11 10 11 12 11 12 11 10 10 10 11 12 12 13 14 13 13 14 14 15 15 16 16 16 15 15 16 17 17 17 16 16 16 16 16 16 16 15 15 15 14 13 12 11 9 9 8 7 5 5 5 4 3 2 2 2 4 5 5
12 9 5 4 4 6 5 4 4 2 1 9 13 8 1 1 1 1 4 19 28 27 28 28 29 28 27 26 24 23 22 20 20 18 14 12 11 9 10 10 11 12 11 12 11 11 10 10 11 12 13 14 14 14 14 14 15 15 16 17 17 17 16 16 17 17 17 16 16 16 16 17 16 15 15 15 14 13 12 11 11 10 9 8 7 6 6 5 5 4 2 1 1 2 4 5 4
6 4 3 3 1 2 2 2 1 1 4 11 9 3 3 1 1 2 8 21 27 26 27 27 27 28 27 27 25 24 23 22 20 17 14 13 12 10 9 11 12 12 12 13 12 11 10 10 11 12 13 14 14 15 14 14 15 16 17 17 18 18 18 17 18 18 18 18 17 17 17 16 15 15 15 14 13 12 11 10 9 8 8 7 7 7 7 6 6 4 3 1 0 2 4 5 4
3 2 2 1 1 1 0 1 1 2 5 11 4 1 5 2 2 4 9 19 26 25 25 26 26 27 28 27 26 25 24 23 20 17 16 14 14 12 10 11 13 13 13 13 12 11 11 11 11 12 14 14 15 15 15 15 16 17 18 18 19 19 19 18 18 19 19 18 17 17 16 15 15 15 15 14 13 11 10 9 8 7 7 7 6 6 7 7 7 6 4 2 1 2 4 5 3
2 1 2 2 1 1 0 2 2 1 5 7 1 2 3 2 4 7 8 17 25 25 23 25 25 25 27 28 26 26 26 24 21 18 17 16 15 14 11 12 13 13 14 13 13 13 13 12 11 13 14 15 16 16 16 17 17 18 18 19 19 19 19 18 18 19 19 18 17 16 16 15 15 15 14 13 11 10 9 8 7 7 7 6 6 5 6 7 7 7 5 3 1 2 3 3 2
2 2 2 1 1 1 0 2 2 1 4 4 3 1 2 2 7 9 6 16 24 23 23 25 25 25 26 27 27 26 26 24 23 21 19 17 16 14 13 13 14 13 13 14 13 13 14 14 13 13 15 15 16 17 18 19 18 18 18 18 18 18 17 17 17 18 17 16 16 16 15 15 14 13 12 11 10 9 8 7 6 6 6 5 4 4 4 5 6 7 6 4 2 2 2 2 2
2 1 1 1 2 2 1 1 1 1 3 3 1 2 2 1 8 8 6 16 22 20 21 24 25 25 26 26 26 27 26 24 24 24 22 20 17 15 14 14 15 14 13 14 14 13 14 15 15 14 15 16 17 18 19 19 18 18 18 17 17 17 17 17 17 17 16 15 15 15 15 14 13 12 11 10 9 8 7 6 6 6 5 4 3 2 2 3 5 7 7 5 3 2 2 2 3
3 2 1 1 1 2 1 0 2 3 2 3 3 3 2 3 6 5 6 14 19 19 19 22 24 26 26 26 26 26 27 27 26 25 23 21 18 16 15 15 16 15 15 15 14 13 15 16 16 16 16 17 18 18 18 18 18 17 17 17 17 17 17 17 17 17 16 15 15 15 14 13 12 10 9 8 7 7 6 6 6 5 5 3 2 1 2 3 5 7 7 5 3 3 2 3 4
5 3 2 1 1 1 1 1 2 3 2 2 3 4 4 6 4 5 10 12 13 16 16 18 22 24 25 25 26 26 27 28 28 26 24 22 19 17 17 17 16 16 16 16 15 15 16 17 18 17 17 17 19 20 19 19 18 17 17 17 17 17 16 17 16 16 15 14 14 13 12 11 11 9 8 7 6 6 6 6 6 6 5 3 2 1 2 3 4 7 7 5 3 3 3 4 3
3 3 1 2 2 1 1 2 4 2 2 2 2 2 5 8 4 6 17 14 10 13 14 16 19 22 24 25 26 27 28 29 27 26 25 23 20 19 19 18 17 18 17 17 17 16 17 18 19 19 18 19 20 21 21 20 18 18 17 16 16 16 16 15 15 14 13 13 12 11 10 10 10 9 8 6 6 6 6 6 6 6 4 2 1 2 2 2 4 6 6 5 3 3 3 3 2
1 3 3 3 2 2 2 3 5 0 1 3 3 3 3 5 3 6 17 15 12 15 15 17 20 22 24 26 27 28 29 28 26 26 25 24 22 21 21 20 19 19 19 19 18 17 18 19 19 20 20 19 20 20 20 20 18 17 16 16 15 15 15 14 13 13 12 12 11 10 10 10 9 9 8 7 6 6 6 6 6 5 3 1 1 2 2 2 3 4 5 5 4 4 3 2 0
1 2 3 2 1 3 2 2 4 2 1 3 3 4 2 1 2 2 9 10 12 18 19 19 22 23 25 27 28 29 29 28 27 26 26 25 24 23 22 22 21 20 20 20 19 18 19 20 19 20 21 21 20 20 19 18 17 16 15 14 14 14 14 13 12 11 11 12 11 10 10 10 9 8 8 7 6 5 5 5 6 4 3 2 2 2 3 3 3 4 5 4 3 4 3 2 1
2 2 3 2 3 4 1 2 3 3 2 1 3 3 1 1 1 3 8 11 10 14 19 19 22 25 27 29 30 30 30 29 29 28 27 27 26 25 24 23 22 21 22 22 21 20 21 21 20 20 21 21 21 20 17 16 17 16 15 14 14 13 13 13 12 12 12 12 11 11 10 9 8 7 7 6 5 5 5 5 5 5 4 3 2 3 4 3 3 5 5 3 2 2 2 2 2
3 4 4 2 4 4 2 5 4 3 2 2 4 2 2 2 3 4 8 12 11 12 16 16 19 25 28 29 30 31 32 32 32 30 30 29 29 27 25 24 23 22 23 23 23 22 22 22 21 20 21 21 21 20 17 16 17 18 17 16 15 14 14 14 14 14 13 12 12 11 9 9 8 8 7 6 5 5 5 5 5 5 5 4 3 4 4 4 4 5 4 3 1 1 1 1 2
4 5 8 5 6 5 6 10 6 1 1 2 4 2 3 3 7 7 6 8 11 12 13 15 18 22 25 28 30 32 32 33 34 33 32 32 31 29 27 26 24 23 22 23 23 23 23 22 22 21 21 21 21 20 18 17 18 19 19 18 18 17 16 16 16 15 13 12 11 10 9 9 9 8 7 7 6 5 6 6 5 5 5 5 4 5 5 5 5 5 4 3 2 1 2 2 2
3 5 7 8 8 8 11 12 7 2 2 3 5 4 2 1 6 10 8 7 11 11 10 14 18 20 24 29 31 32 33 33 34 34 34 34 33 31 29 27 25 23 22 22 23 23 23 23 22 22 21 21 21 20 20 18 19 20 19 18 17 17 17 16 15 13 12 11 11 11 10 9 10 9 8 8 7 6 6 6 6 6 6 5 5 5 5 5 5 5 5 4 2 2 3 1 1
4 6 5 8 8 9 11 9 3 1 1 1 4 3 1 2 5 8 9 9 11 11 10 12 16 19 24 29 32 33 34 35 35 35 35 35 34 32 30 29 26 23 22 22 23 23 23 23 22 22 21 21 21 20 21 21 21 20 19 18 17 16 15 14 13 12 11 11 11 12 11 11 10 10 9 8 8 7 7 7 7 7 6 6 6 6 5 5 6 5 5 5 3 2 2 2 2
3 1 6 7 7 8 8 5 2 2 3 1 5 4 1 4 4 4 10 11 12 15 14 13 16 20 23 27 31 34 35 36 36 36 37 36 35 33 30 29 27 24 23 22 23 22 22 22 22 22 22 21 21 21 21 21 22 21 19 18 17 15 13 11 11 12 12 12 12 13 13 12 11 10 10 9 8 8 8 8 8 7 6 6 6 6 5 5 6 6 6 6 4 3 2 2 2
2 10 13 10 9 8 6 3 2 2 1 2 6 6 3 4 3 3 7 10 13 15 14 14 19 23 25 26 30 33 35 35 36 37 37 36 34 32 30 29 28 26 24 23 22 22 21 21 21 22 22 22 22 21 21 21 22 21 20 18 17 15 13 12 12 12 12 13 13 14 14 13 12 11 10 10 9 9 9 9 9 8 7 7 7 6 6 6 6 6 6 6 5 4 3 2 2
10 13 12 9 7 6 4 3 4 3 3 3 8 11 5 3 4 5 8 13 18 16 12 14 18 22 26 26 27 32 35 35 36 36 37 36 33 31 31 31 30 28 26 25 24 22 22 21 21 21 21 22 22 22 22 22 22 22 21 19 17 16 15 14 14 14 14 14 14 15 15 14 13 12 11 11 10 10 9 10 10 9 8 8 7 7 6 6 6 6 6 6 6 6 5 4 3
9 7 6 5 3 3 4 3 3 1 5 4 5 10 7 3 5 5 9 14 15 15 14 16 18 21 26 27 26 30 35 36 35 36 36 36 35 34 34 34 32 30 28 27 25 23 22 21 20 21 20 20 22 23 23 23 23 22 21 20 19 18 17 16 16 15 14 15 15 15 16 14 14 13 13 12 12 11 10 10 10 9 9 9 8 8 7 7 7 6 6 6 7 7 7 6 5
5 6 6 4 1 2 2 1 1 2 5 4 4 7 5 6 9 7 9 12 10 11 16 20 23 25 27 30 30 29 33 36 35 36 37 36 37 36 36 36 35 32 30 28 26 24 23 22 21 21 21 20 21 22 23 23 24 23 21 21 20 19 18 17 17 16 15 15 15 16 17 15 14 14 14 13 12 12 11 11 10 10 10 9 9 10 9 8 7 7 6 6 7 8 8 7 7
3 6 5 4 3 2 1 1 1 2 4 2 6 7 2 4 7 9 11 14 16 18 19 22 28 30 30 32 33 31 32 35 36 36 38 38 38 37 36 36 36 34 31 28 27 25 24 24 22 21 21 20 20 21 23 24 24 23 22 22 21 21 19 17 17 17 16 15 14 15 16 15 14 14 13 12 12 12 12 12 11 11 10 10 10 11 10 10 8 7 7 7 8 8 8 8 8
3 2 2 4 5 3 3 3 1 2 2 1 4 4 3 3 4 7 8 11 17 21 21 21 26 31 32 31 31 30 31 34 36 37 38 39 39 37 37 37 36 34 32 30 28 27 25 25 23 22 22 22 21 22 23 24 24 23 23 22 22 21 20 18 16 16 16 15 14 14 15 15 14 14 13 12 12 13 13 13 13 12 12 11 11 11 10 10 10 9 8 8 9 8 8 8 9
2 0 3 1 4 4 3 2 4 3 1 1 2 3 4 4 5 5 4 5 8 15 20 20 22 28 31 29 28 29 30 33 35 36 38 39 39 38 38 38 36 35 34 31 29 28 26 25 24 23 22 23 23 23 24 24 24 24 23 23 22 21 20 19 17 16 16 15 14 14 14 14 14 13 13 13 13 13 14 14 14 13 12 12 12 11 10 10 10 10 9 9 9 9 8 8 8
1 3 1 4 2 4 4 1 1 3 1 2 2 4 4 3 5 6 5 3 2 9 15 19 23 29 33 32 30 29 30 33 35 36 37 38 39 39 39 39 38 37 35 33 31 28 25 25 25 24 23 24 24 24 24 25 25 24 24 22 21 20 19 19 18 17 16 15 15 15 14 14 13 13 13 13 13 14 14 15 14 14 13 12 12 12 11 11 11 11 10 10 9 9 9 8 8
3 2 4 3 2 3 3 2 1 2 1 2 2 4 5 3 3 6 9 6 2 4 10 15 21 29 34 35 33 31 31 31 33 35 36 37 38 39 40 40 39 38 36 34 31 28 26 24 25 25 25 25 25 25 24 25 25 25 24 22 20 20 19 19 18 17 16 16 17 16 16 15 14 13 14 14 14 14 14 15 15 15 14 14 13 12 12 12 12 12 12 11 10 10 10 9 9
1 4 2 2 2 2 2 2 1 0 1 3 3 4 3 2 2 7 11 9 6 2 6 10 16 24 31 35 35 33 31 30 31 33 34 36 38 39 40 41 40 39 37 34 32 30 28 26 25 25 25 25 25 25 25 25 25 25 24 22 20 20 19 18 18 18 17 17 17 17 17 16 15 15 15 15 15 15 15 15 15 16 15 15 14 14 14 13 13 13 12 12 11 11 11 10 10
5 2 3 3 3 2 2 1 3 1 1 3 3 3 2 2 3 7 10 11 9 4 5 7 11 18 25 31 33 33 33 33 33 34 35 36 38 39 40 40 41 41 39 37 34 33 31 28 26 26 26 26 25 26 26 25 25 24 24 23 21 20 19 18 18 18 18 17 17 18 17 17 16 16 16 17 17 17 16 16 16 16 16 15 15 14 14 13 13 13 13 13 13 12 12 12 11
5 4 4 4 2 1 2 2 2 3 1 2 1 3 3 1 3 7 9 11 10 6 4 5 8 14 20 24 29 32 34 35 35 36 36 35 37 38 39 40 40 41 41 39 37 35 33 30 27 26 26 26 26 26 26 25 24 24 24 23 22 21 19 19 18 18 18 17 17 17 17 17 17 17 17 18 18 18 17 17 16 17 16 16 15 14 13 13 13 13 14 14 14 14 14 13 12
1 2 3 3 3 0 0 3 2 2 1 2 2 2 4 3 4 6 8 8 10 8 2 4 7 12 17 21 26 30 33 34 35 37 38 36 35 36 37 39 40 41 42 41 39 37 35 32 29 27 26 26 27 26 26 25 24 24 24 22 21 21 20 19 18 18 18 18 17 17 17 17 17 17 17 18 18 17 17 16 16 16 16 15 15 14 13 12 12 13 14 14 14 14 14 13 13
Wind_Direction
132 128 104 76 5 346 338 340 53 10 71 80 349 4 180 183 147 104 101 131 114 171 173 159 164 166 174 191 172 112 96 144 168 155 163 148 145 153 153 155 160 158 161 158 157 155 156 155 150 147 145 147 142 137 137 132 126 123 118 115 114 118 122 121 121 119 118 118 115 114 114 116 114 110 109 112 116 115 113 114 115 114 113 110 108 108 109 108 105 103 101 100 96 91 88 86 83
115 113 71 24 343 344 348 7 68 13 60 79 329 200 241 347 117 143 161 167 143 169 171 157 164 174 177 152 131 91 73 93 153 134 132 140 145 153 155 157 157 158 160 157 156 153 153 151 148 145 144 150 147 144 144 138 132 128 124 121 118 117 120 122 122 121 121 119 118 118 118 120 118 115 113 114 121 120 111 113 116 115 114 111 109 107 109 109 107 104 102 99 94 89 86 84 81
75 56 29 349 334 350 350 8 86 92 86 102 280 262 303 62 184 180 179 170 144 157 157 153 164 178 123 121 105 84 76 70 134 131 133 144 150 153 156 155 155 158 157 155 154 151 152 151 148 144 146 152 151 151 152 147 142 138 133 129 126 123 121 122 124 124 122 119 119 120 121 123 122 121 116 114 121 124 116 113 114 115 116 113 111 108 108 109 108 106 102 97 92 90 87 83 79
42 27 1 334 332 3 17 45 118 114 113 144 180 273 288 185 187 140 158 148 147 152 147 149 153 152 141 105 78 74 98 136 144 139 140 149 153 152 154 155 156 158 156 155 154 152 151 150 148 146 148 152 154 157 155 151 150 146 140 139 133 127 126 125 126 126 123 121 121 122 124 126 126 123 117 115 120 125 122 116 114 117 119 117 114 111 111 112 111 108 102 99 94 92 89 85 80
32 14 350 335 339 4 56 81 86 90 125 170 135 274 280 163 127 84 93 130 147 150 147 152 139 108 120 87 60 77 134 151 150 145 145 149 154 153 154 155 155 156 155 156 155 153 151 150 149 148 150 152 160 158 151 150 150 150 146 146 140 135 134 129 129 128 125 123 124 125 127 129 127 125 119 116 120 127 128 122 118 122 124 119 116 113 115 115 115 111 105 103 98 93 89 85 81
34 1 339 338 347 5 74 102 99 80 92 168 130 272 228 118 119 103 101 116 137 146 149 154 139 120 99 66 60 91 125 154 155 149 147 150 154 154 153 154 153 153 153 155 155 153 150 148 147 148 152 152 160 157 151 151 149 153 151 150 149 150 145 136 136 134 131 128 128 127 128 129 126 127 122 117 122 130 130 126 122 126 127 120 117 116 116 118 117 112 107 104 100 95 87 80 77
28 345 326 348 345 15 75 113 111 81 313 159 137 235 121 132 128 117 115 117 126 141 151 152 138 120 84 77 83 76 68 164 159 151 151 152 154 154 153 154 152 151 152 155 157 156 153 148 148 152 157 155 162 165 163 163 161 159 155 157 159 159 152 145 147 144 138 133 132 131 131 129 126 128 124 120 127 135 133 129 126 125 126 120 117 116 118 121 119 113 108 104 101 96 86 78 72
355 332 303 57 13 32 72 101 85 96 288 289 192 129 115 141 133 123 125 123 136 140 136 141 135 112 46 115 99 70 99 156 158 150 152 152 153 154 153 155 154 153 153 156 159 160 157 155 159 162 165 163 170 176 178 176 173 170 166 170 165 159 156 154 156 149 141 138 136 134 135 133 129 130 127 126 133 137 135 131 127 126 124 118 116 120 124 124 120 115 109 106 101 93 85 80 75
317 326 323 94 73 69 77 78 57 105 343 350 26 12 114 143 135 123 117 105 132 131 129 143 134 114 100 88 89 104 129 154 155 149 152 153 154 154 154 156 157 159 157 158 162 161 159 163 169 169 173 173 181 187 186 182 180 177 172 177 172 163 162 162 160 154 150 146 141 138 138 137 134 130 127 131 135 136 134 130 128 128 124 119 121 127 130 124 121 116 110 108 98 88 82 79 79
310 328 340 117 78 90 103 73 63 1 335 1 32 11 98 150 138 121 117 111 131 126 130 146 115 117 113 80 81 109 139 154 153 150 154 154 156 155 154 156 161 164 159 159 160 160 161 170 176 175 180 183 192 195 191 189 185 176 170 179 182 177 171 169 165 161 161 154 147 145 142 141 137 130 128 132 135 134 132 129 129 129 127 126 128 129 127 121 118 114 109 104 93 84 77 75 78
327 347 7 76 61 96 122 90 88 348 313 303 38 25 94 157 132 103 104 113 129 121 130 140 115 116 106 71 87 114 144 154 155 153 155 157 158 156 154 156 161 166 162 161 161 164 169 174 180 183 188 191 200 202 201 201 193 185 185 187 190 188 178 175 173 168 167 159 153 152 149 146 141 133 132 136 136 134 131 130 131 133 133 131 126 123 122 118 115 111 106 98 92 84 76 76 78
356 341 24 83 53 60 98 96 102 92 0 18 18 10 127 152 133 130 127 126 132 123 137 152 139 128 94 52 114 136 150 154 158 154 157 161 158 155 156 158 161 166 167 168 168 172 178 179 181 186 192 196 204 207 207 206 202 206 204 194 194 197 185 181 179 172 170 159 154 158 154 147 144 138 137 141 139 136 134 131 132 135 134 127 122 120 120 119 115 110 103 97 93 85 79 82 81
13 354 64 82 4 27 83 112 31 57 43 15 324 13 134 143 138 152 134 123 129 121 146 157 147 134 87 108 136 149 153 156 160 159 162 161 156 155 158 161 162 167 172 176 178 180 183 183 184 190 195 199 207 209 209 206 203 208 210 197 197 202 192 184 179 172 170 158 153 159 156 149 147 142 140 145 142 138 136 134 134 133 129 123 121 121 121 122 117 110 102 98 93 88 88 87 81
0 350 78 104 352 30 85 135 295 72 68 308 268 110 130 125 136 153 133 121 117 118 151 153 147 127 110 128 147 159 156 160 164 164 164 159 158 158 160 162 163 169 175 180 182 183 184 185 187 192 200 204 208 209 210 210 206 209 210 198 196 202 195 184 176 170 167 158 153 153 154 152 149 143 142 145 141 138 138 138 139 136 132 124 123 123 125 124 115 108 103 100 97 95 95 88 79
338 338 65 114 19 60 106 238 276 105 174 224 132 128 117 106 138 147 139 132 107 141 143 149 145 114 153 160 166 165 159 164 167 166 162 158 159 159 163 163 165 171 175 180 180 180 183 188 190 192 199 202 202 204 205 205 205 208 207 197 195 195 189 182 174 170 165 159 155 149 150 153 151 145 142 143 138 136 137 142 141 139 136 129 127 127 125 120 113 109 105 102 100 98 94 85 76
328 335 57 85 46 126 151 184 150 127 216 213 145 133 105 100 140 139 145 137 127 140 135 152 153 20 174 169 164 163 160 167 166 163 160 157 160 158 164 166 169 172 174 180 177 177 182 194 201 202 204 203 202 200 198 197 196 200 199 194 192 187 183 180 173 165 160 159 156 151 152 154 153 147 142 141 136 134 138 141 135 132 132 130 128 124 120 115 111 107 105 101 99 96 91 81 71
315 347 60 60 150 176 179 178 184 165 190 170 157 150 116 106 137 129 139 133 131 141 127 155 194 330 165 160 158 159 161 168 163 161 161 159 161 160 164 167 171 171 172 180 183 183 188 201 207 211 212 210 210 197 188 191 188 187 187 189 187 182 181 177 170 163 158 158 157 154 155 154 153 149 143 140 136 134 136 132 128 127 128 128 124 119 116 112 109 106 103 99 95 91 84 75 63
272 77 67 22 187 191 187 176 171 141 151 168 173 169 140 132 137 127 126 123 127 127 113 133 112 122 150 150 153 158 164 169 165 163 164 164 168 171 170 170 175 175 173 182 193 193 195 206 206 209 211 210 209 190 182 190 183 172 175 185 180 177 178 172 173 166 156 157 159 155 153 153 154 151 144 139 134 131 128 125 125 126 126 124 120 116 113 111 109 107 102 97 92 85 76 64 50
184 95 66 252 211 204 198 158 153 156 166 166 179 174 147 146 145 139 137 127 124 112 106 117 110 118 136 146 154 162 168 172 170 165 166 169 174 182 181 180 183 184 187 189 192 190 193 198 198 202 203 203 199 182 183 187 175 164 170 180 175 174 172 168 175 163 149 154 158 154 152 152 153 149 143 138 133 129 126 125 126 126 124 121 118 115 113 113 111 108 102 94 87 76 64 47 35
197 137 86 251 235 240 289 172 172 179 170 164 176 169 149 148 148 150 145 130 129 130 133 127 123 132 141 150 159 165 171 177 174 169 170 173 182 193 193 191 187 188 192 189 184 183 182 184 188 192 190 190 185 177 185 181 162 159 165 166 166 169 163 161 169 158 148 154 156 153 153 152 152 148 143 139 134 132 128 127 127 125 123 121 119 118 117 116 112 108 100 91 82 67 52 35 28
179 175 192 233 217 217 307 204 184 178 172 167 159 151 152 153 151 153 143 128 153 169 159 154 148 149 150 155 163 169 175 180 179 179 178 180 190 198 201 197 190 188 188 184 179 177 173 174 180 180 175 175 174 174 183 174 158 157 158 156 156 157 154 156 159 156 153 155 156 154 154 153 152 149 144 140 135 131 128 127 127 125 125 124 123 123 121 117 112 107 98 89 79 64 57 56 54
160 222 238 315 220 180 336 217 190 180 176 167 151 146 155 152 136 152 155 145 195 180 171 171 167 162 161 162 166 172 179 182 184 186 187 193 198 201 206 199 189 187 186 180 175 172 169 168 170 170 165 165 167 168 169 162 157 155 152 154 153 150 151 154 154 155 155 156 158 156 155 155 154 150 143 137 133 130 129 130 129 126 127 128 129 128 124 120 113 106 96 87 75 64 67 74 69
212 263 256 8 3 192 17 187 191 180 167 156 155 155 147 138 107 154 172 163 168 179 175 174 174 169 167 166 169 175 181 186 186 186 190 198 203 206 207 198 188 185 183 175 170 168 163 159 160 161 158 161 162 159 155 151 150 149 147 151 152 150 151 153 152 154 156 158 159 156 155 155 153 147 139 134 133 133 132 133 131 129 130 135 136 134 129 124 116 107 98 89 77 72 75 76 72
217 283 100 52 61 82 56 152 177 159 144 145 160 152 143 136 125 161 182 167 155 175 173 173 171 168 168 168 172 178 183 187 187 187 190 195 205 209 204 195 187 184 182 173 167 162 155 153 153 150 150 152 153 152 149 146 145 145 145 148 150 151 152 152 152 154 157 158 156 154 153 151 148 142 136 136 137 135 134 135 135 135 137 140 142 140 137 130 120 112 104 94 83 80 78 75 71
218 246 83 74 73 87 85 114 137 146 158 175 158 143 134 131 126 162 182 163 160 171 171 171 168 167 171 172 175 181 186 189 190 191 191 194 202 204 199 193 190 187 181 170 162 156 149 149 149 144 144 146 147 149 148 145 143 143 144 146 148 149 149 149 151 154 157 155 151 148 146 146 144 140 138 139 139 137 138 139 138 138 141 144 147 146 143 136 127 121 114 106 94 82 76 71 67
208 140 80 87 86 99 108 108 118 165 172 166 145 126 118 123 110 162 199 171 163 170 170 169 168 169 173 176 180 184 188 191 191 192 191 192 197 202 200 193 193 187 177 171 160 152 146 146 147 143 142 144 147 148 146 142 139 141 143 145 146 145 146 147 149 152 152 148 144 142 142 143 141 138 139 140 141 141 142 142 139 139 142 148 150 149 146 140 137 135 130 119 98 77 66 62 58
142 113 86 88 89 84 99 118 127 182 184 172 154 119 101 112 118 169 233 180 165 166 166 168 171 172 176 180 183 186 191 192 190 191 192 193 198 206 203 194 191 185 177 172 160 149 145 144 145 145 143 144 148 147 145 142 138 141 142 142 143 143 143 144 146 147 145 143 141 142 141 141 139 137 139 142 144 144 145 145 144 145 149 153 153 152 151 146 146 147 144 125 93 74 60 55 54
124 114 92 90 91 73 68 106 122 159 190 174 141 104 71 82 112 166 252 174 168 165 164 169 173 175 179 182 187 191 192 192 193 195 196 197 202 209 209 200 190 184 179 172 162 151 146 145 144 145 147 147 146 145 143 142 141 143 143 142 141 142 142 142 143 143 142 140 140 140 139 137 136 137 141 144 145 146 149 151 154 158 160 161 159 160 162 158 159 159 155 128 90 68 51 43 40
121 112 95 127 119 73 47 65 128 155 146 150 131 107 71 40 97 37 159 169 169 166 165 170 175 177 181 186 191 194 193 194 197 200 203 204 208 213 212 204 193 186 177 172 168 156 148 146 146 146 148 147 144 141 141 141 142 144 145 143 141 142 141 140 141 141 139 137 136 136 136 136 136 138 142 145 148 150 155 159 163 167 169 170 171 174 179 178 177 177 173 152 87 50 36 21 10
107 76 86 157 151 51 47 63 145 160 126 151 143 131 204 249 318 102 147 169 168 164 164 169 175 178 183 188 193 196 196 197 200 204 208 210 213 213 211 203 196 189 179 176 175 164 154 149 149 149 148 146 143 140 140 139 141 144 145 143 142 142 141 140 140 139 138 136 135 136 136 138 140 143 147 150 154 157 159 161 162 165 168 174 181 188 194 197 197 199 203 204 137 30 16 359 355
98 62 50 82 43 348 17 158 253 22 139 166 160 135 192 244 274 142 147 171 170 165 166 169 173 179 185 189 193 197 199 200 205 209 209 214 214 211 209 203 195 190 185 181 178 171 160 153 152 151 148 146 143 139 138 139 139 141 142 141 141 141 142 142 141 141 141 138 137 138 140 143 146 149 152 156 160 162 162 161 162 167 174 179 186 195 205 212 216 216 214 210 228 358 356 347 348
80 96 307 356 91 260 29 156 242 23 149 186 215 90 190 270 203 163 149 172 173 168 172 174 173 177 185 191 194 198 201 204 209 213 215 218 215 211 209 202 194 190 189 185 181 177 165 157 155 153 151 146 141 137 137 138 137 138 139 139 139 141 143 143 144 145 144 142 142 143 146 149 152 154 157 161 165 167 168 168 171 177 181 179 179 186 200 211 219 220 218 217 244 331 343 340 341
26 104 229 229 126 254 150 131 270 355 139 193 275 158 172 278 193 176 158 176 176 173 178 181 179 179 184 191 195 198 200 205 212 216 219 220 216 214 211 202 194 189 190 189 186 182 170 161 157 156 154 147 142 140 139 138 138 139 139 139 140 141 143 145 147 149 148 148 149 149 151 152 155 157 161 166 169 172 172 173 176 171 165 161 161 169 184 200 211 215 222 229 250 318 335 320 319
325 51 256 213 159 206 162 110 234 199 157 183 251 192 178 175 178 179 175 177 177 178 183 184 184 184 187 192 195 198 201 204 212 216 220 222 217 213 211 202 194 189 190 191 190 185 175 166 159 157 156 151 147 145 143 143 142 144 144 143 145 144 145 148 150 153 154 155 155 155 156 157 158 159 162 168 172 173 171 169 169 161 155 156 157 163 178 194 205 212 223 234 259 309 330 310 302
213 215 229 265 193 186 164 126 178 165 177 172 161 182 168 132 157 171 174 175 178 184 189 189 189 190 192 195 198 202 205 208 215 219 221 222 217 211 205 198 192 189 188 190 189 185 179 172 163 159 159 156 153 151 150 151 151 152 152 150 151 151 151 153 155 158 159 160 159 159 161 162 163 161 163 167 168 167 167 167 165 162 163 161 157 169 190 197 205 212 221 232 264 311 326 310 294
194 185 142 191 195 188 195 99 122 139 148 147 178 181 145 149 152 148 165 181 192 193 198 199 195 196 197 199 202 206 210 213 216 219 222 221 216 207 196 191 190 187 188 190 187 185 183 177 170 164 163 162 160 158 158 159 159 157 157 158 158 157 158 158 159 162 163 165 164 165 167 167 166 165 166 167 165 163 166 170 168 164 161 153 161 192 193 197 204 210 218 225 251 304 312 312 299
141 132 146 228 169 79 317 117 119 134 137 128 237 231 152 164 160 152 171 191 219 206 207 211 204 202 202 202 204 208 213 215 216 218 221 220 213 205 193 185 186 186 189 192 189 186 186 182 176 171 168 168 168 166 165 167 167 163 162 163 163 162 162 162 163 166 169 171 172 174 173 172 170 170 172 175 173 169 169 174 171 165 161 166 205 196 190 202 200 205 217 224 240 278 287 307 313
96 158 193 241 178 102 358 121 140 164 95 135 199 224 174 163 140 157 174 191 222 213 210 214 210 208 207 207 206 209 213 215 215 215 217 216 209 202 193 185 185 186 188 192 191 187 187 186 181 176 174 174 174 174 172 173 174 171 167 166 168 170 169 166 167 168 172 175 177 178 179 180 177 174 176 180 181 174 169 172 170 168 176 209 215 193 202 213 199 197 208 222 240 262 275 297 4
257 143 155 226 197 111 52 111 131 14 24 138 153 170 191 121 83 177 191 204 224 218 217 219 215 212 210 209 208 209 211 212 213 212 212 213 207 201 194 188 187 187 188 191 193 191 190 189 185 182 181 179 178 180 179 179 180 176 172 172 173 176 176 173 172 173 175 177 179 181 183 183 180 177 177 178 179 175 173 178 177 183 200 211 209 201 209 215 198 189 196 215 244 257 272 280 251
237 148 138 206 186 136 110 150 129 24 6 79 98 140 240 335 353 298 239 234 240 226 223 224 221 217 215 213 210 209 208 209 210 210 210 208 205 202 196 191 189 188 190 191 193 195 193 190 188 187 186 184 183 185 185 182 181 176 172 172 172 174 176 176 176 178 180 182 183 184 182 179 180 183 182 182 185 185 190 193 193 203 210 212 212 207 208 206 188 182 189 206 252 271 278 286 301
262 200 188 189 170 165 140 135 127 31 5 67 93 99 289 226 210 259 244 240 251 239 224 223 221 219 219 216 212 211 210 210 210 208 207 205 204 204 199 194 191 190 191 191 193 195 194 192 190 190 190 188 188 189 187 184 181 177 172 171 171 170 173 178 179 180 183 186 186 184 181 180 184 188 186 188 193 197 201 201 203 209 214 221 219 206 205 202 186 179 185 196 235 269 62 14 345
301 236 206 177 160 158 129 130 133 115 252 180 143 177 250 206 204 221 224 230 243 240 227 223 219 214 215 214 210 210 210 211 211 209 208 207 207 205 201 197 195 195 195 193 194 195 194 194 192 192 193 192 192 191 189 188 185 181 177 176 177 175 178 183 185 184 186 187 186 187 189 191 192 192 192 192 196 204 206 208 210 210 214 222 217 206 204 201 190 187 186 186 198 155 95 58 39
289 254 199 167 157 147 143 145 145 175 213 180 180 213 261 235 219 214 204 216 231 232 226 226 221 210 208 209 208 207 206 207 208 209 208 207 207 206 202 200 199 200 199 195 195 195 195 196 195 194 194 196 196 194 193 193 190 186 183 182 183 183 185 187 189 189 190 191 191 194 198 200 200 200 199 199 202 209 212 214 212 209 213 218 213 206 206 202 197 197 192 185 187 156 114 93 124
247 257 174 155 153 144 147 143 118 109 43 86 194 203 342 294 243 210 190 207 230 230 228 229 224 213 204 204 206 205 204 204 203 203 205 206 206 206 204 203 203 205 202 198 196 196 196 198 198 197 196 197 199 198 198 197 194 190 189 189 191 193 193 192 193 194 195 197 198 200 202 204 205 206 206 207 208 211 215 216 213 212 216 219 213 206 211 208 201 204 201 197 197 166 137 135 152
255 314 92 111 115 115 128 120 79 80 57 296 203 177 234 268 269 205 186 200 225 226 224 222 219 215 206 200 203 204 203 203 203 202 204 206 207 206 206 206 206 205 204 203 200 197 195 196 198 199 199 199 200 200 201 200 199 196 196 197 197 199 200 200 203 204 203 203 202 203 205 205 206 210 212 211 210 211 214 216 216 215 219 222 215 212 219 212 204 206 209 210 213 196 173 161 157
124 87 74 70 73 74 83 77 50 49 47 208 188 180 219 266 255 183 177 202 222 222 220 218 213 213 208 201 200 202 202 201 203 204 205 207 208 207 207 207 207 207 207 206 204 201 196 194 195 198 200 202 202 202 203 204 204 204 206 207 205 204 204 206 210 210 209 207 204 205 206 206 207 211 213 212 212 212 215 220 219 214 217 221 217 221 228 218 209 210 214 222 229 224 216 203 186
115 94 81 74 64 54 47 33 44 30 293 220 174 182 194 292 252 190 183 206 212 209 208 212 211 209 207 205 201 199 201 202 202 203 205 207 208 208 207 207 207 207 207 206 206 205 200 195 195 196 199 203 204 205 205 206 208 211 213 215 217 216 216 216 215 212 211 210 206 206 208 207 208 211 213 213 213 214 216 220 221 216 218 219 218 228 232 222 218 217 218 227 237 237 231 227 223
112 107 111 99 59 35 34 6 43 81 269 267 175 174 174 240 254 209 208 221 216 205 202 201 203 204 204 205 204 200 201 203 203 203 203 204 206 206 206 207 208 207 207 206 207 209 204 198 197 197 199 203 206 207 208 207 209 212 215 218 222 225 227 227 225 220 218 217 213 210 210 211 211 213 214 212 212 216 218 219 221 221 220 219 219 228 230 226 226 223 220 227 235 236 231 233 237
89 132 135 104 53 30 55 335 322 198 253 268 151 148 167 235 254 247 236 241 236 217 211 203 197 197 199 202 203 201 200 203 204 203 203 203 205 206 207 207 207 208 209 207 207 210 208 203 202 203 203 205 208 209 210 209 210 211 213 216 220 224 228 231 232 232 230 228 224 217 215 216 216 217 218 215 211 217 222 222 225 227 226 224 222 224 227 231 234 227 221 227 234 232 225 229 238
132 148 137 123 121 76 148 220 309 250 274 281 149 151 195 262 264 252 238 237 230 221 217 208 199 196 196 199 203 202 199 202 204 204 204 205 206 208 209 209 209 210 211 210 209 210 209 206 206 208 209 210 212 213 212 212 212 213 214 216 219 222 227 231 233 237 238 237 233 226 223 223 223 223 225 223 219 222 226 225 226 229 230 229 226 225 226 232 237 232 226 229 234 230 222 225 236
183 194 119 142 157 143 171 188 198 212 287 3 137 166 204 214 246 243 242 246 231 218 211 204 200 197 195 198 203 202 198 199 203 205 205 207 209 211 212 212 212 214 214 212 212 212 211 210 208 211 213 214 216 216 216 215 215 215 217 219 221 223 228 232 234 240 243 241 239 235 231 230 230 230 230 231 229 228 228 226 226 228 231 232 230 230 231 233 237 238 237 236 235 232 225 224 233
246 1 83 164 194 157 133 165 170 157 133 133 169 233 222 216 264 284 294 278 224 202 194 189 189 190 193 200 204 203 200 198 200 204 206 209 211 213 214 214 215 216 216 214 214 214 214 213 211 213 216 218 220 220 219 218 217 218 219 221 222 224 229 233 235 240 244 243 242 242 239 236 236 236 234 233 232 230 230 229 229 230 231 232 232 233 236 238 240 242 244 242 240 239 234 230 233
215 46 191 241 209 121 109 128 114 101 142 215 204 257 290 307 309 328 351 0 176 181 181 179 179 182 193 204 205 202 202 200 200 203 207 209 211 213 214 216 217 218 217 217 217 217 218 218 215 214 216 219 222 223 221 220 219 219 221 222 222 224 228 233 236 240 243 245 246 246 246 242 239 239 237 234 231 231 232 232 233 234 233 233 232 232 235 238 239 240 240 241 244 246 242 238 238
133 130 227 243 8 55 106 132 44 69 206 262 227 239 294 322 296 334 354 1 345 186 177 177 177 181 193 204 206 204 203 203 203 204 207 210 211 213 215 216 218 220 220 220 220 220 221 221 220 217 216 218 222 223 221 220 220 220 222 223 223 225 229 232 235 237 241 245 247 249 250 246 242 241 239 235 232 231 231 232 234 235 234 232 232 233 235 235 236 237 238 239 243 245 242 241 244
87 175 197 95 67 322 12 125 175 84 249 277 279 264 273 239 262 333 341 335 325 256 187 185 183 184 192 201 206 208 206 205 207 205 206 208 211 214 215 217 219 220 222 223 223 222 222 223 223 222 221 220 221 222 220 220 220 221 223 224 225 227 229 232 234 236 239 243 247 250 250 248 245 242 240 238 236 234 233 232 232 233 232 230 231 233 234 235 237 238 239 241 244 245 242 242 245
357 62 30 42 138 190 299 180 158 137 252 258 302 313 285 229 300 326 323 316 314 277 204 197 195 192 194 198 202 206 207 207 209 208 208 209 211 214 217 218 220 221 222 223 224 224 223 223 224 225 225 223 221 222 221 221 221 222 224 224 225 227 228 231 234 235 237 241 245 248 247 246 244 242 241 241 241 239 236 233 232 230 228 228 230 232 234 237 239 241 241 242 244 247 246 244 245
347 21 24 356 336 229 277 295 100 110 209 249 280 290 278 296 320 318 319 319 312 285 221 195 196 195 196 199 201 203 205 206 208 210 211 212 212 214 217 219 221 221 222 222 224 225 225 225 225 225 225 222 219 220 222 222 221 222 224 225 224 225 227 230 233 234 235 237 240 242 242 243 242 241 243 244 243 241 238 237 236 233 230 230 233 236 238 241 243 242 242 242 243 245 247 246 245
319 24 45 0 307 325 101 295 326 97 172 234 196 254 279 308 330 322 329 329 324 320 276 175 183 191 196 202 203 205 205 205 207 210 212 214 214 215 216 218 219 219 220 222 223 225 225 226 227 227 225 221 218 219 221 222 221 223 225 226 224 224 225 228 232 233 233 234 235 237 238 238 239 240 243 244 242 240 241 241 240 238 235 235 238 242 245 248 249 247 245 243 242 243 244 245 243